Powrót do katalogu

STARLINK-33573

AktywnyŁącznośćVLEO
NORAD 62778·PAYLOAD·🇺🇸 United States

Wystrzelony Jan 21, 2025 z Vandenberg Space Force Base

Loading…

Następne Przeloty (najbliższe 24 godziny)

TLE

ŚwieżeSource: CelesTrak SupGP

Epoka: Sep 15, 2026, 02:49 UTC

1 62778C 25015W   26258.11784722  .00007004  00000+0  20694-3 0  2580
2 62778  53.1576 159.1901 0001261  84.6205 189.2421 15.34387128    10

Śledź STARLINK-33573 w czasie rzeczywistym z AllMySat

Download on the App Store